Location: Dalton
(34.7700°N, 84.9700°W)
Time: 07:47:58
(UTC-04:00)

Hubble Space Telescope - Pass Details

Date: 07 October 2017
Orbit: 537 x 541 km, 28.5° (Epoch: 23 October)

Event Time Altitude Azimuth Distance (km) Brightness Sun altitude
Exits shadow 05:36:40 28° 144° (SE) 1,025 2.3 -25.9°
Drops below altitude 10° 05:39:13 10° 114° (ESE) 1,789 4.1 -25.4°
Sets 05:41:37 0° 105° (ESE) 2,680 5.4 -24.9°
